Location: Diamond Heights Village
(37.7458°N, 122.4416°W)
Time: 16:11:22
(UTC+00:00)

USA 234 - Pass Details

Date: 13 June 2024
Orbit: 1100 x 1107 km, 123.0° (Epoch: 08 July)

Event Time Altitude Azimuth Distance (km) Brightness Sun altitude
Rises 11:58:17 0° 122° (ESE) 3,915 6.4 -8.8°
Reaches altitude 10° 12:00:47 10° 119° (ESE) 2,959 5.8 -8.4°
Maximum altitude 12:07:13 64° 40° (NE) 1,212 3.9 -7.4°
Drops below altitude 10° 12:13:40 10° 321° (NW) 2,965 5.5 -6.4°
Sets 12:16:11 0° 318° (NW) 3,924 6.1 -6.0°
